Stations météo

réclame
Mon MeteoGroup
Vigo Peinador, Espagne (8045): Température de l'air & dewpoint: 14.01.2019 12:00:00 - 20.01.2019 12:00:00 (CET)Vigo Peinador, Espagne (8045): Vitesse du vent: 14.01.2019 12:00:00 - 20.01.2019 12:00:00 (CET)Vigo Peinador, Espagne (8045): Direction du vent: 14.01.2019 12:00:00 - 20.01.2019 12:00:00 (CET)Vigo Peinador, Espagne (8045): reduced air pressure: 14.01.2019 12:00:00 - 20.01.2019 12:00:00 (CET)Vigo Peinador, Espagne (8045): visibility: 14.01.2019 12:00:00 - 20.01.2019 12:00:00 (CET)
Date & Time tt [°C] td [°C] ff [km/h] ff [knt] dd ppp [hPa] vv [km]
20.01.2019 12:00:00 9,8 7,0 5 3 ENE 1021,8 10
20.01.2019 11:00:00 7,6 7,2 0 0 N 1021,0 10
20.01.2019 10:00:00 6,7 6,5 0 0 N 1020,2 10
20.01.2019 09:00:00 6,4 6,4 0 0 N 1019,7 10
20.01.2019 08:00:00 6,7 6,7 4 2 NNE 1019,0 10
20.01.2019 07:00:00 6,3 6,3 0 0 N 1018,6 15
20.01.2019 06:00:00 6,3 6,3 0 0 N 1018,0 -
20.01.2019 05:00:00 6,8 6,8 4 2 - 1017,8 10
20.01.2019 04:00:00 7,3 6,6 15 8 N 1017,2 10
20.01.2019 03:00:00 8,0 6,8 18 10 N 1016,2 10
20.01.2019 02:00:00 8,4 7,3 21 11 N 1015,6 10
20.01.2019 01:00:00 9,0 6,0 22 12 N - 10
20.01.2019 00:00:00 8,9 7,2 28 15 N 1013,7 8
19.01.2019 23:00:00 9,5 8,1 24 13 N 1012,4 8
19.01.2019 22:00:00 9,8 8,6 29 16 N 1010,7 8
19.01.2019 21:00:00 10,8 10,0 35 19 N 1009,1 7
19.01.2019 20:00:00 11,7 11,7 15 8 WNW 1007,6 3,5
19.01.2019 19:00:00 11,8 11,8 11 6 W 1007,1 0,3
19.01.2019 18:00:00 11,8 11,8 15 8 W 1006,7 0,2
19.01.2019 17:00:00 11,9 11,9 18 10 W 1006,4 0,3
19.01.2019 16:00:00 11,8 11,8 21 11 W 1006,7 0,1
19.01.2019 15:00:00 11,7 11,7 26 14 SW 1007,4 0,8
19.01.2019 14:00:00 8,9 8,9 16 9 S 1009,0 0,9
19.01.2019 13:00:00 8,2 8,2 13 7 S 1010,6 0,1
19.01.2019 12:00:00 7,6 7,6 13 7 - 1011,9 0,1
19.01.2019 11:00:00 7,2 7,2 15 8 - 1012,7 0,2
19.01.2019 10:00:00 7,0 7,0 22 12 S 1013,0 0,2
19.01.2019 09:00:00 6,8 6,8 22 12 S 1013,5 0,4
19.01.2019 08:00:00 6,4 6,4 18 10 S 1014,1 0,5
19.01.2019 07:00:00 6,3 6,3 16 9 S 1015,2 0,2
19.01.2019 06:00:00 6,2 6,2 16 9 S 1015,9 0,3
19.01.2019 05:00:00 6,1 6,1 11 6 S 1016,8 0,8
19.01.2019 04:00:00 6,1 6,1 9 5 SW 1017,5 10
19.01.2019 03:00:00 5,9 5,9 9 5 SW 1017,9 10
19.01.2019 02:00:00 6,0 6,0 15 8 S 1018,6 10
19.01.2019 01:00:00 6,1 6,1 13 7 SSW 1019,2 6
19.01.2019 00:00:00 6,1 6,1 8 4 SW 1019,7 10
18.01.2019 23:00:00 5,7 5,7 9 5 SW 1019,6 7
18.01.2019 22:00:00 6,1 6,1 13 7 SSW 1019,3 5
18.01.2019 21:00:00 6,2 6,2 15 8 SSW 1019,4 6
18.01.2019 20:00:00 6,5 6,5 13 7 S 1019,3 7
18.01.2019 19:00:00 6,5 6,5 9 5 S 1019,3 7
18.01.2019 18:00:00 6,3 6,3 9 5 SSW 1019,2 7
18.01.2019 17:00:00 6,2 6,2 9 5 S 1019,2 0,8
18.01.2019 16:00:00 6,1 6,0 11 6 SSW 1019,7 1,5
18.01.2019 15:00:00 5,8 5,8 11 6 S 1020,1 0,8
18.01.2019 14:00:00 5,4 5,4 11 6 SSW 1020,8 6
18.01.2019 13:00:00 5,0 5,0 11 6 SW 1021,5 7
18.01.2019 12:00:00 4,7 4,7 13 7 SSW 1022,1 9
18.01.2019 11:00:00 3,8 3,8 15 8 SSW 1022,2 7
18.01.2019 10:00:00 3,9 3,9 15 8 SSW 1022,2 6
18.01.2019 09:00:00 3,6 3,6 11 6 SSW 1022,1 9
18.01.2019 08:00:00 4,1 4,1 11 6 SW 1022,3 10
18.01.2019 07:00:00 3,7 3,7 9 5 SW 1022,0 10
18.01.2019 06:00:00 4,2 4,1 9 5 SW 1022,2 10
18.01.2019 05:00:00 4,8 3,8 8 4 WSW 1022,7 10
18.01.2019 04:00:00 4,4 4,1 11 6 WSW 1023,3 30
18.01.2019 03:00:00 3,6 3,1 8 4 SSW 1023,6 10
18.01.2019 02:00:00 3,8 2,6 0 0 N 1024,1 10
18.01.2019 01:00:00 4,8 3,3 4 2 - 1024,3 10
18.01.2019 00:00:00 5,0 4,1 5 3 NNE 1024,5 10
17.01.2019 23:00:00 4,7 4,7 5 3 NNE 1024,6 10
17.01.2019 22:00:00 5,0 4,1 4 2 - 1024,1 10
17.01.2019 21:00:00 7,1 3,8 13 7 N 1023,8 10
17.01.2019 20:00:00 7,3 4,3 13 7 N 1023,9 10
17.01.2019 19:00:00 8,0 3,9 13 7 N 1023,4 10
17.01.2019 18:00:00 9,3 3,9 11 6 NNW 1023,0 10
17.01.2019 17:00:00 10,3 3,6 13 7 NNW 1022,5 10
17.01.2019 16:00:00 9,8 4,0 16 9 N 1022,3 35
17.01.2019 15:00:00 10,4 4,4 16 9 N 1022,6 10
17.01.2019 14:00:00 10,1 4,6 9 5 NNE 1023,1 10
17.01.2019 13:00:00 9,7 6,7 8 4 NE 1023,7 35
17.01.2019 12:00:00 9,1 5,1 9 5 NNE 1023,8 10
17.01.2019 11:00:00 6,9 4,7 8 4 N 1024,0 10
17.01.2019 10:00:00 5,8 5,7 8 4 NNE 1023,6 10
17.01.2019 09:00:00 4,3 3,7 4 2 N 1023,4 10
17.01.2019 08:00:00 4,9 4,5 11 6 N 1023,0 10
17.01.2019 07:00:00 5,2 5,2 9 5 NNE 1022,6 10
17.01.2019 06:00:00 5,3 5,3 9 5 NNE 1022,6 10
17.01.2019 05:00:00 5,5 5,5 8 4 N 1022,2 10
17.01.2019 04:00:00 6,0 6,0 9 5 N 1021,9 20
17.01.2019 03:00:00 6,6 6,6 9 5 NNE 1021,6 10
17.01.2019 02:00:00 7,3 7,2 13 7 N 1021,6 10
17.01.2019 01:00:00 7,2 7,2 5 3 NNE 1021,4 20
17.01.2019 00:00:00 7,4 7,4 9 5 NNE 1021,0 10
16.01.2019 23:00:00 8,0 8,0 11 6 N 1020,5 4,0
16.01.2019 22:00:00 8,3 8,3 4 2 NNE 1020,5 0,8
16.01.2019 21:00:00 8,6 8,6 2 1 WSW 1019,9 6
16.01.2019 20:00:00 8,8 8,8 8 4 WSW 1019,4 4,0
16.01.2019 19:00:00 8,7 8,7 8 4 W 1019,1 10
16.01.2019 18:00:00 10,1 8,0 5 3 WNW 1018,8 10
16.01.2019 17:00:00 10,3 9,4 9 5 WSW 1018,4 10
16.01.2019 16:00:00 10,4 8,2 4 2 - 1018,1 10
16.01.2019 15:00:00 10,1 9,2 8 4 WNW 1018,1 4,5
16.01.2019 14:00:00 9,8 9,8 8 4 W 1018,5 2,5
16.01.2019 13:00:00 9,2 9,2 9 5 - 1019,0 2,0
16.01.2019 12:00:00 8,6 8,6 8 4 S 1019,4 1,2
16.01.2019 11:00:00 8,3 8,3 9 5 SSW 1019,4 0,1
16.01.2019 10:00:00 8,0 8,0 9 5 SSW 1019,1 0,1
16.01.2019 09:00:00 7,9 7,9 2 1 - 1018,7 0,4
16.01.2019 08:00:00 8,3 8,3 9 5 SSW 1018,3 2,5
16.01.2019 07:00:00 8,1 8,1 11 6 SSW 1018,3 2,5
16.01.2019 06:00:00 8,0 8,0 8 4 SW 1018,5 2,0
16.01.2019 05:00:00 8,2 8,2 9 5 S 1019,0 3,0
16.01.2019 04:00:00 8,3 8,3 9 5 S 1019,1 5
16.01.2019 03:00:00 8,6 8,6 13 7 S 1019,2 5
16.01.2019 02:00:00 8,4 8,4 9 5 S 1019,7 5
16.01.2019 01:00:00 8,2 8,2 15 8 SSW 1020,0 7
16.01.2019 00:00:00 8,4 8,4 13 7 S 1020,2 5
15.01.2019 23:00:00 8,4 8,4 11 6 S 1020,4 6
15.01.2019 22:00:00 7,6 7,3 8 4 SSW 1020,5 6
15.01.2019 21:00:00 7,8 7,1 11 6 SW 1020,5 6
15.01.2019 20:00:00 7,3 6,2 5 3 W 1020,2 9
15.01.2019 19:00:00 8,1 6,2 4 2 - 1019,8 9
15.01.2019 18:00:00 11,7 5,6 0 0 N 1019,1 10
15.01.2019 17:00:00 13,3 5,7 2 1 - 1018,8 10
15.01.2019 16:00:00 12,1 5,0 5 3 S 1019,1 10
15.01.2019 15:00:00 12,8 3,9 9 5 SSW 1019,4 10
15.01.2019 14:00:00 11,4 4,2 11 6 S 1020,2 10
15.01.2019 13:00:00 8,0 3,5 11 6 SW 1021,4 25
15.01.2019 12:00:00 6,3 3,5 15 8 SSW 1022,0 10
15.01.2019 11:00:00 5,1 3,1 11 6 SSW 1022,1 10
15.01.2019 10:00:00 3,4 3,3 13 7 SW 1022,1 10
15.01.2019 09:00:00 3,3 3,3 11 6 SW 1021,7 10
15.01.2019 08:00:00 3,5 3,5 13 7 SW 1021,6 10
15.01.2019 07:00:00 4,5 3,8 9 5 SW 1021,4 10
15.01.2019 06:00:00 4,1 4,1 9 5 WSW 1021,4 10
15.01.2019 05:00:00 4,7 4,0 8 4 SW 1021,8 10
15.01.2019 04:00:00 4,7 4,1 8 4 SW 1022,3 10
15.01.2019 03:00:00 4,7 4,4 11 6 SW 1022,4 10
15.01.2019 02:00:00 - - - - - - -
15.01.2019 01:00:00 4,8 4,4 13 7 SW 1023,0 10
15.01.2019 00:00:00 5,2 4,3 9 5 SW 1023,1 10
14.01.2019 23:00:00 5,4 4,2 5 3 SW 1023,2 10
14.01.2019 22:00:00 5,8 4,1 5 3 SSW 1023,1 15
14.01.2019 21:00:00 6,2 4,2 11 6 SW 1023,2 10
14.01.2019 20:00:00 6,3 4,3 11 6 SSW 1023,6 10
14.01.2019 19:00:00 7,0 4,1 11 6 SW 1023,6 10
14.01.2019 18:00:00 9,3 4,2 8 4 SSW 1023,5 10
14.01.2019 17:00:00 10,9 4,4 9 5 SSW 1023,5 10
14.01.2019 16:00:00 11,2 4,2 11 6 SSW 1023,6 30
14.01.2019 15:00:00 10,9 3,9 9 5 - 1024,1 10
14.01.2019 14:00:00 10,3 4,7 13 7 S 1024,9 10
14.01.2019 13:00:00 9,3 4,9 11 6 S 1025,6 30
14.01.2019 12:00:00 7,4 5,0 8 4 S 1026,5 10

tt = Température de l'air
td = dewpoint
ff = Vitesse du vent
dd = Direction du vent
ppp = reduced air pressure
vv = visibility

stations d'obs. à proximité